When you browse on this site, cookies collect data to enhance your experience and personalize the content and advertising you see.
Visit our Privacy Policy to learn more. By continuing to use the site, you agree to this use of cookies and data.

Hourly Weather Armawir

Today, 11 July, Saturday

Time Temperature Precipitation Wind Pressure Humidity
00:00 +23°C° 0.5 mm 2 mps 688 mmHg 67%
01:00 +23°C° 0.2 mm 2 mps 688 mmHg 69%
02:00 +22°C° 0.2 mm 1 mps 688 mmHg 71%
03:00 +22°C° 0 mm 1 mps 687 mmHg 70%
04:00 +22°C° 0.2 mm 1 mps 688 mmHg 68%
05:00 +23°C° 0.2 mm 1 mps 688 mmHg 67%
06:00 +23°C° 0.2 mm 1 mps 688 mmHg 66%
07:00 +24°C° 0.2 mm 1 mps 688 mmHg 60%
08:00 +26°C° 0.2 mm 1 mps 688 mmHg 55%
09:00 +27°C° 0.2 mm 1 mps 688 mmHg 50%
10:00 +28°C° 0.3 mm 2 mps 688 mmHg 46%
11:00 +30°C° 0.3 mm 2 mps 688 mmHg 42%
12:00 +31°C° 0.3 mm 3 mps 688 mmHg 38%
13:00 +33°C° 0.2 mm 3 mps 687 mmHg 36%
14:00 +33°C° 0.2 mm 3 mps 687 mmHg 35%
15:00 +34°C° 0.2 mm 4 mps 687 mmHg 33%
16:00 +33°C° 0 mm 4 mps 687 mmHg 35%
17:00 +33°C° 0 mm 4 mps 687 mmHg 37%
18:00 +31°C° 0 mm 3 mps 687 mmHg 39%
19:00 +29°C° 0.8 mm 3 mps 687 mmHg 47%
20:00 +27°C° 0.8 mm 3 mps 687 mmHg 56%
21:00 +25°C° 0.8 mm 2 mps 687 mmHg 65%
22:00 +24°C° 0.8 mm 2 mps 686 mmHg 67%
23:00 +24°C° 0.8 mm 2 mps 686 mmHg 69%

Tomorrow, 12 July, Sunday

Time Temperature Precipitation Wind Pressure Humidity
00:00 +24°C° 0.8 mm 2 mps 686 mmHg 71%
01:00 +23°C° 0.1 mm 1 mps 686 mmHg 73%
02:00 +22°C° 0.1 mm 1 mps 685 mmHg 74%
03:00 +22°C° 0.1 mm 1 mps 685 mmHg 76%
04:00 +22°C° 0 mm 1 mps 685 mmHg 74%
05:00 +23°C° 0 mm 1 mps 685 mmHg 72%
06:00 +23°C° 0 mm 1 mps 685 mmHg 70%
07:00 +24°C° 0.1 mm 1 mps 685 mmHg 65%
08:00 +26°C° 0.1 mm 1 mps 685 mmHg 59%
09:00 +27°C° 0.1 mm 1 mps 685 mmHg 54%
10:00 +28°C° 0.2 mm 2 mps 685 mmHg 50%
11:00 +29°C° 0.2 mm 2 mps 685 mmHg 45%
12:00 +31°C° 0.2 mm 3 mps 685 mmHg 41%
13:00 +33°C° 0.1 mm 3 mps 685 mmHg 38%
14:00 +33°C° 0.1 mm 3 mps 684 mmHg 36%
15:00 +34°C° 0.1 mm 4 mps 684 mmHg 33%
16:00 +33°C° 0.2 mm 4 mps 684 mmHg 36%
17:00 +32°C° 0.2 mm 4 mps 684 mmHg 38%
18:00 +30°C° 0.2 mm 4 mps 684 mmHg 40%
19:00 +29°C° 0.7 mm 4 mps 684 mmHg 49%
20:00 +27°C° 0.7 mm 5 mps 684 mmHg 58%
21:00 +25°C° 0.7 mm 5 mps 684 mmHg 66%
22:00 +23°C° 0.2 mm 4 mps 684 mmHg 69%
23:00 +24°C° 0.2 mm 2 mps 684 mmHg 71%

Day after tomorrow, 13 July, Monday

Time Temperature Precipitation Wind Pressure Humidity
00:00 +24°C° 0.2 mm 1 mps 683 mmHg 73%
01:00 +23°C° 0.1 mm 1 mps 683 mmHg 74%
02:00 +22°C° 0.1 mm 1 mps 683 mmHg 75%
03:00 +21°C° 0.1 mm 2 mps 682 mmHg 76%
04:00 +21°C° 0.3 mm 2 mps 682 mmHg 74%
05:00 +22°C° 0.3 mm 1 mps 682 mmHg 73%
06:00 +23°C° 0.3 mm 1 mps 682 mmHg 72%
07:00 +24°C° 0.5 mm 1 mps 682 mmHg 67%
08:00 +25°C° 0.5 mm 1 mps 682 mmHg 62%
09:00 +27°C° 0.5 mm 1 mps 682 mmHg 57%
10:00 +28°C° 0.3 mm 1 mps 682 mmHg 52%
11:00 +29°C° 0.3 mm 1 mps 682 mmHg 47%
12:00 +31°C° 0.3 mm 1 mps 682 mmHg 42%
13:00 +31°C° 0.2 mm 2 mps 682 mmHg 42%
14:00 +30°C° 0.2 mm 4 mps 682 mmHg 42%
15:00 +30°C° 0.2 mm 5 mps 682 mmHg 42%
16:00 +29°C° 0.6 mm 5 mps 682 mmHg 45%
17:00 +27°C° 0.6 mm 4 mps 682 mmHg 49%
18:00 +26°C° 0.6 mm 4 mps 682 mmHg 53%
19:00 +25°C° 0.2 mm 3 mps 682 mmHg 57%
20:00 +24°C° 0.2 mm 2 mps 683 mmHg 62%
21:00 +23°C° 0.2 mm 2 mps 683 mmHg 67%
22:00 +23°C° 0 mm 1 mps 683 mmHg 69%
23:00 +22°C° 0 mm 1 mps 683 mmHg 71%

14 July, Tuesday

Time Temperature Precipitation Wind Pressure Humidity
00:00 +22°C° 0 mm 1 mps 683 mmHg 73%
01:00 +22°C° 0 mm 1 mps 683 mmHg 73%
02:00 +21°C° 0 mm 1 mps 683 mmHg 73%
03:00 +21°C° 0 mm 1 mps 683 mmHg 73%
04:00 +22°C° 0 mm 1 mps 683 mmHg 71%
05:00 +22°C° 0 mm 1 mps 683 mmHg 68%
06:00 +23°C° 0 mm 1 mps 684 mmHg 65%
07:00 +24°C° 0 mm 1 mps 684 mmHg 59%
08:00 +26°C° 0 mm 1 mps 684 mmHg 53%
09:00 +27°C° 0 mm 1 mps 685 mmHg 47%
10:00 +29°C° 0.1 mm 1 mps 685 mmHg 43%
11:00 +30°C° 0.1 mm 1 mps 685 mmHg 39%
12:00 +32°C° 0.1 mm 1 mps 685 mmHg 35%
13:00 +32°C° 0.1 mm 2 mps 685 mmHg 33%
14:00 +34°C° 0.1 mm 2 mps 685 mmHg 31%
15:00 +35°C° 0.1 mm 2 mps 685 mmHg 29%
16:00 +34°C° 0.1 mm 3 mps 685 mmHg 31%
17:00 +34°C° 0.1 mm 4 mps 685 mmHg 33%
18:00 +33°C° 0.1 mm 5 mps 686 mmHg 35%
19:00 +30°C° 0.3 mm 4 mps 686 mmHg 42%
20:00 +28°C° 0.3 mm 4 mps 686 mmHg 49%
21:00 +25°C° 0.3 mm 3 mps 686 mmHg 56%
22:00 +25°C° 0 mm 3 mps 686 mmHg 56%
23:00 +24°C° 0 mm 3 mps 686 mmHg 57%

15 July, Wednesday

Time Temperature Precipitation Wind Pressure Humidity
00:00 +24°C° 0 mm 3 mps 686 mmHg 58%
01:00 +22°C° 0 mm 3 mps 686 mmHg 59%
02:00 +22°C° 0 mm 3 mps 686 mmHg 61%
03:00 +21°C° 0 mm 3 mps 686 mmHg 62%
04:00 +23°C° 0 mm 2 mps 686 mmHg 62%
05:00 +23°C° 0 mm 2 mps 687 mmHg 61%
06:00 +23°C° 0 mm 2 mps 687 mmHg 61%
07:00 +25°C° 0 mm 2 mps 687 mmHg 55%
08:00 +26°C° 0 mm 2 mps 687 mmHg 49%
09:00 +28°C° 0 mm 2 mps 687 mmHg 44%
10:00 +29°C° 0 mm 2 mps 687 mmHg 41%
11:00 +31°C° 0 mm 2 mps 687 mmHg 37%
12:00 +32°C° 0 mm 1 mps 687 mmHg 34%
13:00 +33°C° 0 mm 1 mps 687 mmHg 32%
14:00 +34°C° 0 mm 1 mps 686 mmHg 30%
15:00 +35°C° 0 mm 1 mps 686 mmHg 28%
16:00 +35°C° 0.1 mm 2 mps 686 mmHg 32%
17:00 +34°C° 0.1 mm 3 mps 686 mmHg 36%
18:00 +32°C° 0.1 mm 4 mps 685 mmHg 40%
19:00 +30°C° 0.2 mm 4 mps 686 mmHg 45%
20:00 +28°C° 0.2 mm 3 mps 686 mmHg 51%
21:00 +26°C° 0.2 mm 2 mps 686 mmHg 56%
22:00 +25°C° 1.1 mm 2 mps 686 mmHg 60%
23:00 +24°C° 1.1 mm 2 mps 686 mmHg 63%

16 July, Thursday

Time Temperature Precipitation Wind Pressure Humidity
00:00 +24°C° 1.1 mm 2 mps 686 mmHg 67%
01:00 +23°C° 0.4 mm 2 mps 685 mmHg 68%
02:00 +23°C° 0.4 mm 2 mps 685 mmHg 70%
03:00 +21°C° 0.4 mm 2 mps 685 mmHg 71%
04:00 +23°C° 0.4 mm 1 mps 685 mmHg 71%
05:00 +23°C° 0.4 mm 1 mps 685 mmHg 70%
06:00 +23°C° 0.4 mm 1 mps 685 mmHg 70%
07:00 +24°C° 0.2 mm 1 mps 685 mmHg 64%
08:00 +26°C° 0.2 mm 1 mps 685 mmHg 57%
09:00 +27°C° 0.2 mm 1 mps 685 mmHg 51%
10:00 +29°C° 0.1 mm 1 mps 685 mmHg 47%
11:00 +30°C° 0.1 mm 2 mps 685 mmHg 43%
12:00 +31°C° 0.1 mm 2 mps 684 mmHg 39%
13:00 +32°C° 0 mm 2 mps 684 mmHg 37%
14:00 +34°C° 0 mm 3 mps 684 mmHg 35%
15:00 +35°C° 0 mm 4 mps 683 mmHg 32%
16:00 +33°C° 0.5 mm 3 mps 683 mmHg 38%
17:00 +30°C° 0.5 mm 3 mps 683 mmHg 43%
18:00 +28°C° 0.5 mm 3 mps 683 mmHg 48%
19:00 +27°C° 0.9 mm 3 mps 683 mmHg 55%
20:00 +26°C° 0.9 mm 3 mps 683 mmHg 61%
21:00 +24°C° 0.9 mm 2 mps 684 mmHg 67%
22:00 +24°C° 0.2 mm 2 mps 683 mmHg 68%
23:00 +23°C° 0.2 mm 2 mps 683 mmHg 70%
Show more